Flag for U.S.A. Weather past 2 weeks in Olympia, Washington, U.S.A.

Now
87 °F

Sunny.


Feels Like: 85 °F
Forecast: 59 / 82 °F
Wind: 3 mph from North

Location: Olympia Airport

Current Time: Aug 2, 2015 at 6:11:15 PM

Latest Report: Aug 2, 2015 at 4:54 PM


Visibility: 10 mi

Pressure: 29.89 "Hg

Humidity: 30%

Dew point: 52 °F

Location of OlympiaLocation

Historic Weather in Olympia — Graph

°F

Olympia temperature yesterday

Maximum temperature yesterday: 94 °F (at 4:54 PM)
Minimum temperature yesterday: 48 °F (at 5:54 AM)
Average temperature yesterday: 73 °F

Past Weeks' High & Low Weather Summary

 TemperatureHumidityPressure
High97 °F (Jul 31, 4:54 PM)97% (Jul 27, 2:54 AM)30.29 "Hg (Jul 27, 2:54 AM)
Low47 °F (Jul 27, 6:02 AM)13% (Aug 1, 4:54 PM)29.87 "Hg (Jul 22, 7:54 PM)
Average68 °F58%30.04 "Hg
* Reported Jul 18 4:54 PM — Aug 2 4:54 PM, Olympia, Weather by CustomWeather, © 2015

Note: Actual official high and low records may vary slightly from our data, if they occured in-between our weather recording intervals... More about our weather records

Advertising

Olympia weather history for previous 24 hours

 ConditionsComfort  
Time TempWeatherWind HumidityBarometerVisibility
4:54 PM
Sun, Aug 2
87 °FSunny.3 mph30%29.89 "Hg10 mi
3:54 PM87 °FSunny.6 mph30%29.90 "Hg10 mi
2:54 PM84 °FSunny.No wind32%29.92 "Hg10 mi
1:54 PM83 °FSunny.6 mph36%29.93 "Hg10 mi
12:54 PM80 °FSunny.7 mph41%29.95 "Hg10 mi
11:54 AM76 °FPassing clouds.12 mph45%29.92 "Hg10 mi
10:54 AM77 °FSunny.9 mph42%29.94 "Hg10 mi
9:54 AM72 °FSunny.No wind52%29.96 "Hg10 mi
8:54 AM67 °FSunny.3 mph66%29.95 "Hg10 mi
7:54 AM63 °FSunny.No wind73%29.94 "Hg10 mi
6:54 AM57 °FSunny.No wind81%29.94 "Hg10 mi
5:54 AM56 °FClear.3 mph81%29.93 "Hg10 mi
4:54 AM55 °FClear.No wind77%29.92 "Hg10 mi
3:54 AM57 °FClear.No wind72%29.92 "Hg10 mi
2:54 AM58 °FClear.No wind70%29.91 "Hg10 mi
1:54 AM59 °FClear.3 mph67%29.91 "Hg10 mi
12:54 AM65 °FClear.No wind54%29.90 "Hg10 mi
11:54 PM
Sat, Aug 1
67 °FClear.3 mph49%29.90 "Hg10 mi
10:54 PM74 °FClear.7 mph37%29.90 "Hg10 mi
9:54 PM78 °FClear.7 mph31%29.90 "Hg10 mi
8:54 PM83 °FSunny.7 mph26%29.89 "Hg10 mi
7:54 PM88 °FSunny.6 mph18%29.88 "Hg10 mi
6:54 PM92 °FSunny.7 mph18%29.88 "Hg10 mi
Weather by CustomWeather, © 2015

See weather overviewHow to use our weather pages